Vorticity
-13 -8 27 -9 1 -37 19 16 16 -14 3 6 6 9 12 9 10 10 8 8 7 7 8 8 7 8 9 6 7 2 2 4 4 5 5 7 8 9 8 7 8 7 6
14 23 25 46 -15 51 21 -12 -11 56 5 8 4 8 10 9 9 11 9 9 8 7 8 8 7 8 9 8 7 4 2 3 4 4 5 6 8 8 8 7 6 6 6
19 7 38 15 45 -5 -24 -6 43 -4 12 5 3 4 7 9 8 8 9 10 11 9 8 8 8 8 10 9 5 5 3 2 3 3 5 6 8 10 9 8 8 6 6
24 2 17 23 -13 53 -19 25 -24 7 7 42 1 4 6 7 7 7 9 9 10 9 7 10 9 7 9 9 7 4 6 2 3 3 4 5 7 8 9 8 7 8 8
12 24 36 25 2 5 6 49 -42 13 2 -16 27 4 7 1 9 5 6 7 8 10 9 8 9 8 9 10 8 7 4 3 3 2 2 5 8 9 9 10 8 8 7
23 21 -15 -6 11 29 25 24 -7 18 -8 18 8 2 -1 10 8 7 9 7 7 6 8 7 7 9 8 9 8 7 5 4 4 2 2 4 7 5 6 9 9 8 8
13 20 22 3 6 14 24 23 40 31 14 -8 8 7 26 -12 17 7 4 8 6 4 8 7 8 7 9 7 9 8 7 5 2 2 2 1 5 6 6 7 7 8 9
17 4 26 34 33 10 4 -29 39 -5 21 46 50 13 14 11 2 -10 25 3 11 8 2 6 7 7 7 8 8 9 8 6 5 2 1 2 5 6 6 7 7 7 5
11 9 14 10 9 14 6 15 19 4 -12 34 -3 7 32 26 38 26 -4 13 -1 12 10 10 4 6 7 7 8 8 8 8 7 6 4 3 5 4 8 7 6 6 6
11 15 8 -1 -7 -26 -15 -1 4 16 2 21 47 12 14 32 26 44 12 20 10 15 6 10 7 8 4 8 9 8 7 7 7 8 6 2 5 2 6 3 9 7 8
12 12 9 9 17 21 18 26 18 6 11 -1 6 22 -7 -44 -31 -27 44 9 2 -1 -3 15 3 7 9 1 10 7 8 9 8 8 8 5 4 5 3 4 4 8 9
14 13 13 11 12 10 4 4 -3 2 13 15 12 13 16 22 13 29 10 11 42 63 -21 5 -1 37 -22 13 -7 18 1 8 8 7 8 6 5 3 4 2 6 1 -1
17 16 12 12 14 13 11 7 2 2 3 -11 4 10 7 8 -5 10 19 -10 6 9 45 37 21 22 11 8 22 -21 9 25 10 9 8 6 7 8 4 11 -4 2 3
14 19 16 12 13 13 13 16 21 25 22 19 14 0 18 8 7 1 9 5 1 -3 6 1 27 17 26 15 -2 9 23 24 -17 10 8 11 6 4 12 2 7 9 9
10 10 18 17 15 13 13 11 12 13 15 13 16 10 10 -0 8 8 14 3 14 5 2 -1 5 15 13 17 22 34 3 17 25 15 9 9 -6 5 31 5 -2 4 10
10 12 12 14 16 18 16 12 11 11 13 13 12 11 16 13 9 10 19 17 14 20 11 16 8 4 7 4 3 8 1 33 41 -10 28 29 20 3 -11 -3 30 20 15
9 10 11 12 12 16 19 15 12 14 9 14 16 15 9 6 9 15 7 3 12 19 9 15 19 15 8 17 17 20 15 13 12 32 20 20 43 -8 26 26 10 -2 -20
10 9 10 11 12 11 13 16 17 17 14 11 10 12 20 17 11 11 9 7 7 9 6 3 9 11 9 7 7 14 16 23 19 6 5 -2 17 -1 21 20 33 33 26
10 10 10 9 10 11 11 11 12 15 17 17 13 12 10 13 21 18 17 14 13 11 13 16 7 6 5 10 15 15 15 17 22 20 12 23 22 16 3 10 1 30 26
11 10 9 9 10 10 10 11 10 10 12 15 18 17 14 15 13 11 12 16 16 17 15 14 14 9 9 10 9 8 4 5 5 10 19 21 29 30 35 30 17 11 -1
7 7 7 8 9 9 10 10 11 10 10 10 10 14 16 18 17 16 19 17 11 10 13 12 13 13 13 10 9 11 12 14 11 6 4 -3 -6 -16 10 5 8 5 2
6 7 8 9 9 11 11 10 11 11 10 10 11 10 10 10 14 15 16 18 18 15 13 12 12 11 11 11 12 11 10 9 11 13 14 13 12 14 13 18 18 13 12
6 6 7 8 10 11 12 13 14 14 13 13 12 11 10 10 9 10 11 12 15 18 17 14 14 14 14 13 12 11 12 13 12 11 11 11 12 12 11 10 11 12 11
8 9 9 10 12 13 14 14 15 15 16 16 15 15 14 12 10 9 10 11 11 11 14 14 13 14 15 15 15 13 12 13 14 14 14 14 12 11 13 12 11 10 9
12 14 13 12 11 11 10 10 11 11 12 12 13 15 16 17 16 14 12 10 10 11 11 11 12 13 13 15 16 16 15 13 13 12 12 13 13 15 13 13 14 15 16
9 9 9 9 9 9 9 9 9 9 9 10 10 12 12 13 14 16 17 15 13 11 11 11 12 11 12 12 12 13 13 14 17 16 16 17 17 18 17 16 16 15 15
Height
2968 2975 2977 2982 2988 2992 3002 3010 3018 3028 3040 3048 3054 3060 3065 3071 3076 3083 3089 3095 3101 3107 3112 3117 3123 3127 3131 3135 3139 3144 3148 3152 3155 3158 3161 3164 3166 3168 3170 3172 3175 3176 3178
2966 2969 2975 2977 2982 2988 2995 3005 3014 3014 3026 3041 3047 3053 3058 3063 3069 3076 3082 3088 3094 3100 3107 3112 3117 3121 3126 3130 3135 3139 3144 3148 3151 3153 3156 3159 3162 3164 3166 3168 3170 3172 3174
2958 2966 2970 2974 2981 2984 2990 2998 3007 3012 3019 3031 3038 3045 3051 3056 3062 3068 3075 3081 3088 3094 3100 3105 3110 3114 3119 3125 3129 3134 3139 3143 3146 3148 3152 3155 3157 3159 3162 3164 3166 3168 3170
2951 2957 2963 2968 2974 2979 2982 2989 2999 3005 3012 3014 3029 3036 3042 3048 3055 3062 3068 3073 3080 3086 3092 3098 3103 3107 3113 3118 3123 3128 3133 3137 3140 3142 3146 3149 3151 3154 3156 3159 3162 3163 3165
2945 2951 2956 2962 2967 2971 2975 2981 2986 2996 3004 3013 3016 3026 3034 3041 3047 3054 3060 3066 3072 3078 3083 3089 3094 3101 3107 3112 3117 3121 3126 3129 3133 3136 3139 3142 3146 3149 3151 3154 3155 3158 3160
2941 2946 2953 2956 2960 2965 2972 2976 2982 2987 2996 3002 3006 3017 3025 3035 3041 3047 3053 3058 3064 3070 3076 3081 3086 3092 3098 3103 3108 3113 3118 3122 3126 3130 3133 3136 3140 3143 3144 3146 3149 3151 3153
2938 2941 2946 2948 2950 2959 2966 2971 2976 2981 2986 2990 2998 3007 3013 3024 3028 3037 3043 3049 3054 3060 3067 3072 3077 3083 3089 3093 3099 3104 3109 3113 3117 3122 3125 3129 3133 3136 3138 3140 3142 3143 3145
2934 2936 2940 2943 2949 2952 2959 2964 2969 2970 2975 2981 2989 2996 3003 3011 3017 3028 3034 3041 3047 3051 3056 3062 3068 3074 3080 3085 3090 3094 3098 3103 3108 3112 3117 3123 3125 3128 3129 3132 3133 3134 3135
2930 2933 2937 2940 2944 2947 2952 2956 2960 2964 2968 2973 2979 2985 2993 2998 3001 3014 3024 3030 3036 3041 3047 3053 3058 3063 3069 3076 3080 3084 3088 3092 3100 3105 3109 3114 3116 3119 3121 3122 3123 3126 3127
2926 2928 2931 2937 2938 2945 2946 2952 2955 2959 2964 2969 2975 2980 2982 2990 2997 2998 3010 3012 3022 3029 3035 3041 3047 3053 3059 3065 3068 3072 3075 3081 3088 3094 3098 3102 3106 3108 3110 3112 3115 3116 3119
2923 2925 2927 2930 2935 2939 2944 2947 2950 2953 2959 2965 2970 2974 2978 2982 2987 2994 3001 3004 3011 3018 3021 3028 3034 3040 3046 3053 3059 3061 3065 3074 3077 3081 3086 3090 3093 3096 3098 3103 3104 3107 3109
2917 2919 2922 2924 2928 2933 2935 2939 2943 2949 2955 2957 2961 2966 2970 2976 2981 2988 2992 2997 3000 3005 3011 3015 3020 3024 3032 3039 3046 3051 3056 3060 3063 3067 3070 3074 3078 3081 3087 3093 3096 3097 3101
2913 2913 2917 2919 2921 2924 2928 2932 2936 2940 2945 2949 2954 2960 2965 2968 2971 2977 2982 2986 2989 2997 2999 3003 3008 3015 3021 3026 3032 3038 3043 3048 3049 3051 3055 3059 3066 3072 3078 3082 3084 3086 3087
2909 2910 2912 2913 2915 2919 2924 2924 2927 2931 2936 2940 2945 2950 2954 2957 2960 2965 2971 2977 2984 2986 2990 2994 2998 3003 3007 3009 3017 3023 3026 3031 3035 3037 3041 3048 3053 3058 3063 3068 3072 3074 3076
2906 2906 2907 2908 2910 2913 2916 2918 2921 2923 2928 2930 2934 2940 2944 2949 2953 2955 2962 2968 2972 2973 2978 2983 2986 2990 2994 2998 3002 3007 3011 3015 3019 3023 3028 3030 3036 3040 3045 3052 3057 3060 3062
2902 2904 2904 2905 2905 2907 2909 2913 2916 2919 2920 2922 2926 2930 2934 2940 2944 2948 2952 2957 2961 2963 2967 2970 2975 2979 2984 2987 2991 2994 2998 3000 3002 3008 3012 3014 3021 3026 3030 3033 3038 3043 3047
2898 2899 2899 2900 2901 2901 2903 2906 2908 2911 2913 2914 2919 2922 2925 2930 2932 2938 2942 2947 2950 2953 2955 2958 2963 2967 2972 2975 2979 2982 2985 2988 2992 2995 2997 3001 3005 3009 3014 3018 3021 3026 3026
2894 2894 2895 2896 2898 2899 2899 2900 2902 2904 2907 2911 2912 2914 2917 2919 2922 2927 2931 2936 2940 2942 2945 2949 2951 2956 2960 2963 2968 2970 2973 2977 2980 2982 2985 2988 2992 2995 2998 3002 3005 3009 3013
2889 2890 2891 2892 2893 2894 2895 2895 2896 2898 2900 2902 2905 2907 2909 2912 2914 2916 2920 2924 2929 2932 2936 2939 2942 2946 2950 2953 2957 2959 2962 2965 2968 2971 2974 2976 2979 2982 2985 2989 2992 2995 2998
2884 2885 2886 2887 2888 2889 2890 2891 2892 2893 2894 2896 2898 2899 2901 2904 2906 2908 2910 2916 2918 2922 2926 2928 2931 2935 2939 2942 2945 2949 2952 2955 2958 2961 2964 2967 2969 2971 2974 2977 2981 2983 2986
2879 2880 2881 2882 2882 2883 2883 2884 2885 2887 2888 2889 2891 2893 2894 2894 2896 2899 2903 2905 2908 2912 2916 2919 2921 2924 2927 2931 2935 2938 2940 2943 2947 2951 2955 2958 2961 2964 2966 2968 2970 2972 2975
2873 2874 2875 2875 2876 2876 2877 2878 2879 2880 2882 2883 2883 2884 2886 2888 2889 2890 2894 2897 2899 2903 2907 2909 2911 2914 2917 2920 2923 2927 2930 2933 2935 2938 2941 2946 2950 2953 2956 2957 2959 2961 2963
2868 2868 2869 2869 2869 2870 2870 2871 2871 2872 2874 2875 2876 2877 2879 2881 2884 2886 2888 2889 2892 2894 2896 2899 2902 2905 2907 2910 2914 2916 2920 2922 2925 2927 2930 2934 2937 2940 2943 2945 2947 2949 2951
2861 2862 2863 2863 2863 2863 2863 2864 2865 2865 2866 2867 2868 2869 2871 2873 2875 2877 2880 2882 2884 2887 2889 2890 2892 2894 2897 2901 2903 2906 2910 2912 2914 2917 2919 2922 2925 2928 2930 2933 2934 2936 2938
2854 2855 2856 2856 2856 2857 2857 2857 2858 2859 2860 2861 2861 2862 2864 2866 2868 2869 2870 2873 2876 2879 2881 2883 2884 2886 2889 2891 2893 2896 2900 2902 2904 2906 2908 2911 2914 2916 2918 2920 2922 2924 2926
2847 2848 2849 2849 2850 2850 2850 2851 2851 2852 2852 2853 2854 2855 2856 2858 2860 2861 2863 2866 2869 2870 2871 2873 2876 2879 2880 2883 2885 2887 2891 2894 2895 2896 2898 2900 2903 2906 2907 2909 2910 2912 2914